Pascagoula, MS

9:31 PM CDT on April 27, 2017 (GMT -0500)
Lott International

Weather History for KPQL - March, 2013

Change the Weather History Date:

Wednesday, March 6, 2013

  Actual Average Record
Temperature  
Mean Temperature 51 °F -  
Max Temperature 61 °F 66 °F 80 °F (2006)
Min Temperature 37 °F 47 °F 28 °F (1960)
Degree Days  
Heating Degree Days 14    
Growing Degree Days 1 (Base 50)    
Moisture  
Dew Point 30 °F    
Average Humidity 49    
Maximum Humidity 92    
Minimum Humidity 26    
Precipitation  
Precipitation 0.00 in - - ()
Sea Level Pressure  
Sea Level Pressure 30.24 in    
Wind  
Wind Speed 7 mph (NNW)    
Max Wind Speed 17 mph    
Max Gust Speed 23 mph    
Visibility 9 miles    
Events      
Averages and records for this station are not official NWS values.
T = Trace of Precipitation, MM = Missing Value Source: NWS Daily Summary

Daily Weather History Graph

Daily Weather History Graph

Search for Another Location

Airport or City:

Trip Planner

Search our weather history database for the weather conditions in past years. The results will help you decide how hot, cold, wet, or windy it might be!

Date:

Astronomy

Mar. 06, 2013 Rise Set
Actual Time 6:14 AM CST 5:56 PM CST
Civil Twilight 5:50 AM CST 6:20 PM CST
Nautical Twilight 5:22 AM CST 6:48 PM CST
Astronomical Twilight 4:54 AM CST 7:16 PM CST
Moon 2:06 AM CST (3/6) 12:54 PM CST (3/6)
Length of Visible Light 12h 30m
Length of Day
11h 42m
Waning Crescent, 29% of the Moon is Illuminated
Mar 6
Waning Crescent
Mar 11
New
Mar 19
First Quarter
Mar 27
Full
Apr 2
Last Quarter

Hourly Weather History & Observations

Time (CST) Temp. Windchill Dew Point Humidity Pressure Visibility Wind Dir Wind Speed Gust Speed Precip Events Conditions
12:53 AM 42.1 °F - 39.9 °F 92% 30.18 in 10.0 mi Calm Calm - N/A   Clear
1:53 AM 48.0 °F - 37.9 °F 68% 30.20 in 10.0 mi NNW 8.1 mph - N/A   Clear
2:53 AM 44.1 °F 40.1 °F 35.1 °F 71% 30.20 in 10.0 mi North 6.9 mph - N/A   Clear
3:53 AM 46.0 °F 42.5 °F 30.0 °F 54% 30.21 in 10.0 mi NNW 6.9 mph - N/A   Clear
4:53 AM 45.0 °F 41.2 °F 27.0 °F 49% 30.24 in 10.0 mi NW 6.9 mph - N/A   Clear
5:53 AM 44.1 °F 38.6 °F 27.0 °F 51% 30.26 in 10.0 mi NNW 10.4 mph 20.7 mph N/A   Clear
6:53 AM 43.0 °F 39.5 °F 28.0 °F 56% 30.28 in 10.0 mi NW 5.8 mph - N/A   Clear
7:53 AM 46.9 °F - 26.1 °F 44% 30.29 in 10.0 mi North 13.8 mph 23.0 mph N/A   Clear
8:53 AM 48.9 °F - 26.1 °F 41% 30.30 in 10.0 mi North 17.3 mph - N/A   Clear
9:53 AM 51.1 °F - 24.1 °F 35% 30.30 in 10.0 mi NNW 10.4 mph - N/A   Clear
10:53 AM 54.0 °F - 25.0 °F 33% 30.28 in 10.0 mi North 11.5 mph 18.4 mph N/A   Clear
11:53 AM 57.0 °F - 26.1 °F 30% 30.26 in 10.0 mi North 12.7 mph 19.6 mph N/A   Clear
12:53 PM 59.0 °F - 26.1 °F 28% 30.22 in 10.0 mi North 13.8 mph 23.0 mph N/A   Clear
1:53 PM 57.9 °F - 26.1 °F 30% 30.20 in 10.0 mi NNW 12.7 mph 17.3 mph N/A   Mostly Cloudy
2:41 PM 60.8 °F - 26.6 °F 27% 30.19 in 3.0 mi NNW 12.7 mph 17.3 mph N/A   Smoke
2:53 PM 60.1 °F - 26.1 °F 27% 30.19 in 3.0 mi NNW 12.7 mph - N/A   Smoke
3:24 PM 60.8 °F - 26.6 °F 27% 30.18 in 4.0 mi North 10.4 mph - N/A   Smoke
3:53 PM 61.0 °F - 26.1 °F 26% 30.18 in 10.0 mi NW 6.9 mph 16.1 mph N/A   Smoke
4:53 PM 60.1 °F - 27.0 °F 28% 30.19 in 10.0 mi NNW 6.9 mph - N/A   Clear
5:53 PM 54.0 °F - 28.9 °F 38% 30.22 in 10.0 mi North 6.9 mph - N/A   Clear
6:53 PM 50.0 °F - 32.0 °F 50% 30.24 in 10.0 mi Calm Calm - N/A   Clear
7:53 PM 45.0 °F - 34.0 °F 65% 30.25 in 10.0 mi Calm Calm - N/A   Clear
8:53 PM 41.0 °F - 36.0 °F 82% 30.28 in 10.0 mi Calm Calm - N/A   Clear
9:53 PM 41.0 °F 38.0 °F 35.1 °F 79% 30.29 in 10.0 mi North 4.6 mph - N/A   Clear
10:53 PM 41.0 °F 39.0 °F 32.0 °F 70% 30.30 in 10.0 mi North 3.5 mph - N/A   Clear
11:53 PM 37.9 °F 35.5 °F 33.1 °F 83% 30.28 in 10.0 mi North 3.5 mph - N/A   Clear